Regional Weather Roundup
Issued by NWS

Home | Current Version | Previous Version | Text Only | Print | Product List | Glossary On
Versions: 1 2 3 4 5 6 7 8 9 10 11 12 13 14 15 16 17 18 19 20 21 22 23 24 25 26 27 28
000
ASCA42 TJSJ 280710
RWRPR
PUERTO RICO/U.S. VIRGIN ISLANDS HOURLY WEATHER ROUNDUP
NATIONAL WEATHER SERVICE SAN JUAN PR
300 AM AST WED SEP 28 2016

PRZ001>002-007>008-010-280800-
PUERTO RICO

CITY           SKY/WX    TMP DP  RH WIND       PRES   REMARKS
SAN JUAN LMM   PTCLDY    82  77  83 E7        29.96F HX  91
AGUADILLA      CLEAR     77  73  88 E6        29.97F
CEIBA          PTCLDY    82  75  78 NE8       29.99S
$$

VIZ001>002-280800-
U.S. VIRGIN ISLANDS

CITY           SKY/WX    TMP DP  RH WIND       PRES   REMARKS
CHARLOTTE AMA  CLEAR     82  77  83 E9        29.96S HX  91
CHRISTIANSTED  CLEAR     81  75  83 NE9       29.97S
$$

HOURLY WEATHER ROUNDUP FOR THE NEWS MEDIA

CITY           SKY/WX    TMP DP  RH WIND       PRES   REMARKS
ORLANDO        CLEAR     73  71  93 W3        29.96S
NEW YORK       PTCLDY    60  57  89 NE5       30.01R
NEWARK         PTCLDY    59  54  83 N6        30.01R
CHICAGO        CLOUDY    54  45  71 NE9       29.77F
HARTFORD       PTCLDY    60  58  92 N3        30.03R
BOSTON         CLOUDY    61  59  93 NE13      30.08R
DALLAS         CLOUDY    62  54  74 CALM      30.02F
PHILADELPHIA   PTCLDY    60  56  86 N3        30.00S
LOS ANGELES    MOCLDY    78  49  35 VRB3      29.88S
WASHINGTON DC  CLOUDY    64  63  96 NE3       29.96S FOG



USA.gov is the U.S. government's official web portal to all federal, state and local government web resources and services.